Content
SEND FEEDBACK

Daily
Averages
Monthly
Summary
United States of America

BEDFORD PARK, ILLINOIS


Home > North America > United States > Illinois
Elevation: 623 feet     Latitude: 41 46N     Longitude: 087 45W

WEATHER
 
SELECT A DAY
Number of Records: 189,569;   Date Range: 1/1/95 - 9/18/14
 
SHARE

PRINT THIS DATA

[ ← Previous Day ]
WEATHER ALMANAC - MARCH 5, 2013
[ Next Day → ]
[ °C ]   °F
Weather ElementAverageHighLow
Temperature31.3 °F33.8 °F (5:36 am)28.4 °F (5:46 pm)
Dewpoint27.8 °F28.9 °F (8:51 am)26.1 °F (11:51 pm)
Humidity86.9 %93 % (1:18 pm)75 % (5:36 am)
Barometer29.89 in29.99 in (11:51 pm)29.80 in (1:18 pm)
Wind Speed11.7 mph19.6 mph (7:51 pm)
Wind Gust25.3 mph (7:51 pm)
Weather ElementAverage
Visibility3 mi
Wind DirectionENE (79.8 °)

Weather ElementTotal
Precipitation0.32 in
Heating Degree Days33.9 (Base 65)
Averaged from 41 records on March 5, 2013
WEATHER CONDITIONS BREAKOUT
WIND DIRECTION BREAKOUT
WEATHER BY HOUR - MARCH 5, 2013
[ °C ]   °F
Local TimeTemperatureDewpointHumidityBarometerVisibilityWind DirectionWind SpeedGust SpeedPrecipitationEventsConditions
2:40 AM32.0 °F26.6 °F80 %29.94 in6.0 miEast (80°)12.7 mphHaze
2:51 AM32.0 °F27.0 °F82 %29.97 in6.0 miEast (80°)11.5 mphHaze
3:51 AM32.0 °F27.0 °F82 %29.95 in7.0 miEast (80°)11.5 mphOvercast
4:27 AM32.0 °F26.6 °F80 %29.91 in10.0 miEast (80°)13.8 mphOvercast
4:51 AM32.0 °F27.0 °F82 %29.94 in10.0 miEast (80°)12.7 mphOvercast
5:36 AM33.8 °F26.6 °F75 %29.90 in7.0 miEast (90°)16.1 mph19.6 mph0.00 inSnowLight Snow
5:51 AM33.1 °F27.0 °F78 %29.93 in6.0 miEast (80°)13.8 mph20.7 mph0.00 inSnowLight Snow
6:37 AM32.0 °F26.6 °F80 %29.89 in2.5 miEast (80°)11.5 mphSnowLight Snow
6:51 AM32.0 °F28.4 °F87 %29.88 in2.0 miEast (80°)9.2 mphSnowLight Snow
7:18 AM32.0 °F28.4 °F87 %29.88 in1.5 miEast (90°)10.4 mph0.00 inSnowLight Snow
7:49 AM32.0 °F28.4 °F87 %29.88 in1.8 miEast (90°)10.4 mph0.00 inSnowLight Snow
7:51 AM32.0 °F28.0 °F85 %29.91 in1.8 miEast (90°)12.7 mph0.00 inSnowLight Snow
8:11 AM32.0 °F28.4 °F87 %29.88 in1.2 miEast (100°)6.9 mph0.01 inSnowLight Snow
8:27 AM32.0 °F28.4 °F87 %29.89 in0.8 miEast (90°)5.8 mph0.02 inSnowLight Snow
8:51 AM32.0 °F28.9 °F88 %29.92 in0.8 miENE (60°)6.9 mph0.03 inSnowLight Snow
9:22 AM32.0 °F28.4 °F87 %29.88 in0.5 miENE (70°)6.9 mph0.01 inFog-SnowLight Snow
9:51 AM32.0 °F28.9 °F88 %29.90 in0.5 miENE (70°)10.4 mph0.03 inFog-SnowSnow
10:18 AM32.0 °F28.4 °F87 %29.85 in0.8 miENE (60°)11.5 mph0.01 inSnowLight Snow
10:51 AM32.0 °F28.9 °F88 %29.87 in0.8 miENE (70°)10.4 mph0.01 inSnowLight Snow
11:36 AM32.0 °F28.4 °F87 %29.82 in0.5 miENE (70°)10.4 mph19.6 mph0.01 inFog-SnowSnow
11:51 AM30.9 °F28.9 °F92 %29.86 in0.5 miENE (70°)9.2 mph0.01 inFog-SnowSnow
12:51 PM30.9 °F28.9 °F92 %29.84 in0.2 miENE (60°)10.4 mph0.02 inFog-SnowSnow
1:18 PM30.2 °F28.4 °F93 %29.80 in0.2 miENE (60°)10.4 mph0.01 inFog-SnowSnow
1:51 PM30.9 °F28.0 °F89 %29.83 in0.5 miNE (50°)15.0 mph0.02 inFog-SnowSnow
2:51 PM30.0 °F28.0 °F92 %29.83 in0.2 miNE (50°)12.7 mph0.03 inFog-SnowHeavy Snow
3:51 PM28.9 °F27.0 °F92 %29.84 in0.2 miNE (40°)16.1 mph0.01 inFog-SnowHeavy Snow
4:51 PM28.9 °F27.0 °F92 %29.86 in0.5 miNE (50°)13.8 mph0.01 inFog-SnowSnow
5:46 PM28.4 °F26.6 °F93 %29.84 in0.8 miNE (40°)8.1 mph0.02 inSnowLight Snow
5:51 PM28.9 °F27.0 °F92 %29.88 in0.8 miNE (40°)10.4 mph0.02 inSnowLight Snow
6:24 PM30.2 °F28.4 °F93 %29.85 in1.0 miNNE (30°)6.9 mph0.01 inSnowLight Snow
6:51 PM30.0 °F28.0 °F92 %29.89 in1.0 miNNE (20°)11.5 mph0.02 inSnowLight Snow
7:39 PM30.2 °F28.4 °F93 %29.86 in0.8 miNorth (10°)13.8 mph0.00 inSnowLight Snow
7:51 PM30.0 °F28.0 °F92 %29.90 in0.8 miNorth (10°)19.6 mph25.3 mph0.01 inSnowLight Snow
7:58 PM30.2 °F28.4 °F93 %29.87 in1.2 miNNE (20°)17.3 mph25.3 mph0.00 inSnowLight Snow
8:51 PM30.9 °F28.0 °F89 %29.93 in2.0 miNorth (10°)16.1 mph25.3 mph0.00 inSnowLight Snow
9:09 PM30.2 °F28.4 °F93 %29.90 in3.0 miNorth (10°)12.7 mph23.0 mph0.00 inSnowLight Snow
9:51 PM32.0 °F28.9 °F88 %29.95 in7.0 miNNE (20°)10.4 mph0.00 inSnowLight Snow
10:43 PM32.0 °F26.6 °F80 %29.93 in7.0 miNorth (360°)16.1 mph0.00 inSnowLight Snow
10:51 PM32.0 °F28.0 °F85 %29.97 in9.0 miNorth (360°)12.7 mph0.00 inSnowLight Snow
11:19 PM32.0 °F26.6 °F80 %29.95 in9.0 miNorth (360°)10.4 mph0.00 inOvercast
11:51 PM33.1 °F26.1 °F75 %29.99 in10.0 miNorth (10°)11.5 mph0.00 inOvercast
Hourly data recorded from KMDW, located miles away from Bedford Park, Illinois







STORIES FROM OUR PARTNERS